Regional Weather Roundup
Issued by NWS Portland, ME

Home | Current Version | Previous Version | Text Only | Print | Product List | Glossary On
Versions: 1 2 3 4 5 6 7 8 9 10 11 12 13 14 15 16 17 18 19 20 21 22 23 24 25 26 27 28 29 30 31 32 33 34 35 36 37 38 39 40 41 42 43 44 45 46 47 48 49 50
000
ASUS41 KGYX 041610
RWRGYX
WEATHER ROUNDUP FOR MAINE AND NEW HAMPSHIRE
NATIONAL WEATHER SERVICE GRAY ME
1200 PM EDT TUE AUG 04 2015

MEZ002-005-006-010-012-015-018-020-021-024-026-027-029-041700-
MAINE

CITY           SKY/WX    TMP DP  RH WIND       PRES   REMARKS
PORTLAND       PTSUNNY   76  67  73 S9        29.83F
SANFORD        MOSUNNY   79  64  61 S6        29.84F
BAR HARBOR     CLOUDY    64  64 100 S8        29.85F
WISCASSET      PTSUNNY   75  67  76 SW8       29.84F
ROCKLAND       CLOUDY    70  66  88 SW9       29.82F
FRYEBURG       MOSUNNY   80  67  64 VRB3      29.82F
LEWISTONAUBURN MOSUNNY   75  66  73 SE8       29.83F
AUGUSTA        PTSUNNY   74  67  78 S7        29.83F
WATERVILLE     CLOUDY    73  64  73 S5        29.80F
BANGOR         CLOUDY    73  66  78 S7        29.83F
GREENVILLE       N/A     73  62  68 VRB6      29.82F
MILLINOCKET    CLOUDY    76  65  68 VRB5      29.83F
HOULTON        CLOUDY    76  62  62 VRB6      29.80F
PRESQUE ISLE   PTSUNNY   73  61  64 S10       29.81F
FRENCHVILLE    PTSUNNY   70  57  63 SW10      29.80S
CARIBOU        PTSUNNY   75  61  61 S9        29.80S
$$

NHZ002-005-008-009-011-012-014-041700-
NEW HAMPSHIRE

CITY           SKY/WX    TMP DP  RH WIND       PRES   REMARKS
PORTSMOUTH     MOSUNNY   79  67  66 VRB5      29.81F
ROCHESTER      PTSUNNY   78  67  68 SE6       29.83F
NASHUA         LGT RAIN  75  70  84 VRB3      29.83F
MANCHESTER     PTSUNNY   82  65  56 VRB3      29.81F
CONCORD        SUNNY     80  65  59 SW8       29.83F
LACONIA        MOSUNNY   77  59  53 SW7       29.82F
PLYMOUTH       FAIR      77  70  79 CALM      29.82F
BERLIN         MOSUNNY   79  59  50 S8        29.82F
WHITEFIELD     PTSUNNY   77  58  51 W6        29.83F
JAFFREY        MOSUNNY   79  62  56 W7        29.87S
KEENE          SUNNY     81  61  50 W7        29.84S
LEBANON        MOSUNNY   79  63  57 VRB6      29.82F
MT WASHINGTON  PTSUNNY   59  48  67 SW13G22     N/A
$$

VTZ005-007-008-041700-
VERMONT

CITY           SKY/WX    TMP DP  RH WIND       PRES   REMARKS
ST JOHNSBURY     N/A     76  59  55 MISG      29.79F
MONTPELIER     MOSUNNY   75  59  57 VRB3      29.86F
BURLINGTON     PTSUNNY   69  59  70 E3        29.82F
$$

MAZ007-012-024-CTZ003-RIZ002-NYZ038-NYZ072-041700-
SOUTHERN NEW ENGLAND AND NY

CITY           SKY/WX    TMP DP  RH WIND       PRES   REMARKS
BOSTON         MOSUNNY   82  69  64 S14       29.82F
WORCESTER      MOSUNNY   80  62  54 W9        29.87S
NANTUCKET      CLOUDY    76  72  87 SW12      29.89F
PROVIDENCE     MOSUNNY   82  68  62 S10       29.86S
HARTFORD       PTSUNNY   84  66  54 S12       29.81F
ALBANY         PTSUNNY   80  66  62 VRB6      29.84F
NEW YORK CITY  MOSUNNY   85  63  47 SW13G23   29.85S
$$

ANZ081-ANZ082-ANZ150-NHZ014-MEZ023>029-041700-
COASTAL MARINE OBSERVATIONS

STATION/POSITION TIME  TEMP    WIND        PRES    WAVE
                       AIR SEA DIR/SP/G            HT/PER
                 (UTC) (F)     (DEG/KT/KT) (MB)    (FT/S)
MOUNT DESERT ROC 1600   63     200/ 19/ 19 1010.9F
MATINICUS ROCK   1500   63     230/ 20/ 21 1011.1R
ISLE OF SHOALS   1500   68     150/ 10/ 10 1010.4R
JEFFREYS LEDGE   1503      65                N/A     3/ 7
CASHES LEDGE BUO 1550   66                 1010.2F   3/ 6
GEORGES BANK BUO 1550   71 67  180/ 10/ 12 1014.4F   6/ 8
$$

.............KEY..............
   WCI - WIND CHILL
   TC  - TEMPERATURE IN CELSIUS
   VSB - VISIBILITY IN MILES
   HX  - HEAT INDEX
   FAIR- INDICATES FEW OR NO CLOUDS BELOW 12,000 FT, WITH NO
         SIGNIFICANT WEATHER AND/OR OBSTRUCTIONS TO VISIBILITY.




USA.gov is the U.S. government's official web portal to all federal, state and local government web resources and services.